Grand Junction, CO

4:08 AM MST on December 10, 2019 (GMT -0700)
Walker

Weather History for KGJT - March, 2019

Change the Weather History Date:

Monday, March 25, 2019

  Actual Average Record
Temperature  
Mean Temperature 47 °F 46 °F  
Max Temperature 60 °F 59 °F 79 °F (2012)
Min Temperature 33 °F 33 °F 18 °F (1965)
Degree Days  
Heating Degree Days 18 19  
Month to date heating degree days 553 544  
Since 1 July heating degree days 5008 4923  
Cooling Degree Days 0 0  
Month to date cooling degree days 0 0  
Year to date cooling degree days 0 0  
Moisture  
Dew Point 32 °F    
Average Humidity 59    
Maximum Humidity 92    
Minimum Humidity 25    
Precipitation  
Precipitation 0.00 in 0.03 in 0.42 in (1906)
Month to date precipitation 2.28 0.71  
Year to date precipitation 3.72 1.83  
Snow  
Snow 0.00 in 0.10 in 1.80 in (1980)
Month to date snowfall 0.0 2.1  
Since 1 July snowfall 17.4 17.6  
Snow Depth 0.00 in    
Sea Level Pressure  
Sea Level Pressure 30.26 in    
Wind  
Wind Speed 5 mph (East)    
Max Wind Speed 15 mph    
Max Gust Speed 17 mph    
Visibility 10 miles    
Events      
T = Trace of Precipitation, MM = Missing Value Source: NWS Daily Summary

Daily Weather History Graph

Daily Weather History Graph

Search for Another Location

Airport or City:

Astronomy

Mar. 25, 2019 Rise Set
Actual Time 7:09 AM MDT 7:30 PM MDT
Civil Twilight 6:43 AM MDT 7:57 PM MDT
Nautical Twilight 6:11 AM MDT 8:29 PM MDT
Astronomical Twilight 5:39 AM MDT 9:01 PM MDT
Moon No Moon Rise 10:19 AM MDT (3/25)
Length of Visible Light 13h 14m
Length of Day
12h 20m
Waning Gibbous, 74% of the Moon is Illuminated
Mar 25
Waning Gibbous
Mar 27
Last Quarter
Apr 5
New
Apr 12
First Quarter
Apr 19
Full

Hourly Weather History & Observations

Time (MDT) Temp. Windchill Dew Point Humidity Pressure Visibility Wind Dir Wind Speed Gust Speed Precip Events Conditions
12:53 AM 39.9 °F - 36.0 °F 86% 30.24 in 10.0 mi Calm Calm - N/A   Partly Cloudy
1:53 AM 37.0 °F 33.3 °F 35.1 °F 93% 30.25 in 10.0 mi NE 4.6 mph - N/A   Mostly Cloudy
2:53 AM 37.0 °F - 34.0 °F 89% 30.25 in 10.0 mi Calm Calm - N/A   Scattered Clouds
3:53 AM 37.9 °F - 35.1 °F 89% 30.25 in 10.0 mi Calm Calm - N/A   Overcast
4:53 AM 36.0 °F 33.3 °F 34.0 °F 93% 30.27 in 10.0 mi ENE 3.5 mph - N/A   Partly Cloudy
5:53 AM 33.1 °F 28.7 °F 30.9 °F 92% 30.29 in 10.0 mi East 4.6 mph - N/A   Clear
6:53 AM 34.0 °F - 30.9 °F 89% 30.30 in 10.0 mi Calm Calm - N/A   Clear
7:53 AM 35.1 °F 32.2 °F 32.0 °F 89% 30.33 in 10.0 mi SE 3.5 mph - N/A   Clear
8:53 AM 39.0 °F 34.8 °F 33.1 °F 79% 30.34 in 10.0 mi SSE 5.8 mph - N/A   Clear
9:53 AM 45.0 °F 39.3 °F 35.1 °F 68% 30.35 in 10.0 mi SE 11.5 mph - N/A   Clear
10:53 AM 48.0 °F - 36.0 °F 63% 30.34 in 10.0 mi SE 11.5 mph - N/A   Clear
11:53 AM 50.0 °F - 36.0 °F 59% 30.32 in 10.0 mi SE 8.1 mph - N/A   Clear
12:53 PM 53.1 °F - 35.1 °F 50% 30.30 in 10.0 mi ESE 6.9 mph - N/A   Clear
1:53 PM 55.9 °F - 25.0 °F 30% 30.28 in 10.0 mi SSE 3.5 mph - N/A   Clear
2:53 PM 57.9 °F - 26.1 °F 30% 30.25 in 10.0 mi North 3.5 mph - N/A   Clear
3:53 PM 57.9 °F - 23.0 °F 26% 30.22 in 10.0 mi Calm Calm - N/A   Clear
4:53 PM 59.0 °F - 26.1 °F 28% 30.21 in 10.0 mi Calm Calm - N/A   Clear
5:53 PM 59.0 °F - 28.0 °F 31% 30.21 in 10.0 mi NE 3.5 mph - N/A   Clear
6:53 PM 55.9 °F - 28.9 °F 36% 30.21 in 10.0 mi NNW 4.6 mph - N/A   Clear
7:53 PM 52.0 °F - 32.0 °F 47% 30.21 in 10.0 mi NNW 5.8 mph - N/A   Clear
8:53 PM 46.9 °F - 34.0 °F 61% 30.22 in 10.0 mi ENE 3.5 mph - N/A   Clear
9:53 PM 45.0 °F 41.8 °F 34.0 °F 65% 30.22 in 10.0 mi East 5.8 mph - N/A   Clear
10:53 PM 44.1 °F 40.8 °F 33.1 °F 65% 30.22 in 10.0 mi ENE 5.8 mph - N/A   Clear
11:53 PM 42.1 °F 38.4 °F 33.1 °F 70% 30.22 in 10.0 mi ENE 5.8 mph - N/A   Clear